Location: Nashville
(36.1660°N, 86.7840°W)
Time: 05:16:55
(UTC-06:00)

Courier 1B Rocket - All Passes

Search period start: 19 January 2022 00:00
Search period end: 29 January 2022 00:00
Orbit: 920 x 1202 km, 28.2° (Epoch: 18 January)

Date Brightness Start Highest point End Pass type
(mag) Time Alt. Az. Time Alt. Az. Time Alt. Az.
19 Jan - 01:12:42 10° S 01:15:26 12° SSE 01:18:05 10° SE night (unlit)
19 Jan - 03:02:28 10° SW 03:08:11 29° SSE 03:13:38 10° ESE visible
19 Jan - 04:54:59 10° WSW 05:01:05 41° S 05:06:55 10° ESE visible
19 Jan - 06:48:18 10° WSW 06:53:58 35° SSW 06:59:32 10° SE daylight
19 Jan - 08:42:40 10° WSW 08:46:37 17° SSW 08:50:34 10° SSE daylight
20 Jan - 02:01:54 10° SSW 02:07:18 24° SSE 02:12:25 10° ESE visible
20 Jan - 03:54:00 10° WSW 04:00:11 39° S 04:06:03 10° ESE visible
20 Jan - 05:47:10 10° WSW 05:53:07 39° S 05:58:53 10° ESE visible
20 Jan - 07:41:02 10° WSW 07:45:51 23° SSW 07:50:37 10° SSE daylight
21 Jan - 01:01:39 10° SSW 01:06:23 19° SSE 01:10:55 10° ESE night (unlit)
21 Jan - 02:53:02 10° SW 02:59:16 35° SSE 03:05:07 10° ESE visible
21 Jan - 04:46:01 10° WSW 04:52:14 42° S 04:58:08 10° ESE visible
21 Jan - 06:39:39 10° WSW 06:45:04 29° SSW 06:50:21 10° SE daylight
21 Jan - 08:35:28 10° SW 08:37:36 12° SSW 08:39:43 10° S daylight
22 Jan - 00:02:00 10° S 00:05:28 14° SSE 00:08:50 10° SE night (unlit)
22 Jan - 01:52:12 10° SW 01:58:18 31° SSE 02:04:05 10° ESE visible
22 Jan - 03:44:53 10° WSW 03:51:19 42° S 03:57:21 10° ESE visible
22 Jan - 05:38:22 10° WSW 05:44:15 35° SSW 05:49:53 10° SE visible
22 Jan - 07:32:55 10° WSW 07:36:52 17° SSW 07:40:45 10° SSE daylight
23 Jan - 00:51:32 10° SSW 00:57:21 25° SSE 01:02:52 10° ESE night (unlit)
23 Jan - 02:43:47 10° WSW 02:50:21 41° S 02:56:29 10° ESE visible
23 Jan - 04:37:07 10° WSW 04:43:22 40° S 04:49:16 10° ESE visible
23 Jan - 06:31:09 10° WSW 06:36:07 23° SSW 06:40:55 10° SSE daylight
23 Jan - 23:51:11 10° SSW 23:56:23 20° SSE 00:01:23 10° ESE night (unlit)
24 Jan - 01:42:45 10° SW 01:49:21 37° S 01:55:32 10° ESE night (unlit)
24 Jan - 03:35:52 10° WSW 03:42:26 43° S 03:48:34 10° ESE visible
24 Jan - 05:29:39 10° WSW 05:35:18 30° SSW 05:40:43 10° SE visible
24 Jan - 07:25:42 10° SW 07:27:50 12° SSW 07:29:56 10° S daylight
24 Jan - 22:51:23 10° S 22:55:25 15° SSE 22:59:21 10° ESE night (unlit)
25 Jan - 00:41:51 10° SW 00:48:20 32° SSE 00:54:28 10° ESE night (unlit)
25 Jan - 02:34:39 10° WSW 02:41:26 44° S 02:47:46 10° ESE visible
25 Jan - 04:28:15 10° WSW 04:34:27 36° SSW 04:40:17 10° SE visible
25 Jan - 06:22:59 10° WSW 06:27:06 17° SSW 06:31:06 10° SSE visible
25 Jan - 21:53:33 10° SSE 21:54:27 10° SSE 21:55:22 10° SE night (unlit)
25 Jan - 23:41:08 10° SW 23:47:19 27° SSE 23:53:13 10° ESE night (unlit)
26 Jan - 01:33:29 10° WSW 01:40:24 42° S 01:46:53 10° ESE night (unlit)
26 Jan - 03:26:55 10° WSW 03:33:31 41° S 03:39:41 10° ESE visible
26 Jan - 05:21:06 10° WSW 05:26:19 24° SSW 05:31:19 10° SSE visible
26 Jan - 22:40:45 10° SSW 22:46:17 22° SSE 22:51:40 10° ESE night (unlit)
27 Jan - 00:32:24 10° SW 00:39:19 39° S 00:45:52 10° ESE night (unlit)
27 Jan - 02:25:36 10° WSW 02:32:31 45° S 02:38:57 10° ESE visible
27 Jan - 04:19:30 10° WSW 04:25:29 31° SSW 04:31:07 10° SE visible
27 Jan - 06:15:37 10° SW 06:18:01 12° SSW 06:20:22 10° S visible
27 Jan - 21:40:53 10° S 21:45:18 16° SSE 21:49:38 10° ESE night (unlit)
27 Jan - 23:31:28 10° SW 23:38:15 34° SSE 23:44:44 10° ESE night (unlit)
28 Jan - 01:24:20 10° WSW 01:31:27 45° S 01:38:07 10° ESE night (unlit)
28 Jan - 03:18:01 10° WSW 03:24:34 37° SSW 03:30:41 10° SE visible
28 Jan - 05:12:51 10° WSW 05:17:16 18° SSW 05:21:31 10° SSE visible
28 Jan - 20:42:31 10° SSE 20:44:19 11° SSE 20:46:07 10° SE visible
28 Jan - 22:30:46 10° SW 22:37:11 28° SSE 22:43:25 10° ESE night (unlit)
